EW4729 Weather Reports


Display with metric or nautical units.
time (UTC)temp
F
wind
direction
speed
MPH
gust
MPH
rain 1hr
in
rain 24hr
in
rain mn
in
humidity
%
barometer
mb
20260507152553 63 65 5.0 11.0 0.00 0.00 0.00 85 1017.6
20260507152053 63 62 4.0 10.0 0.00 0.00 0.00 85 1017.5
20260507151555 63 36 3.0 12.0 0.00 0.00 0.00 85 1017.2
20260507151051 63 84 6.0 13.0 0.00 0.00 0.00 85 1017.1
20260507150552 63 42 6.0 13.0 0.00 0.00 0.00 85 1017.1
20260507150057 63 46 4.0 14.0 0.00 0.00 0.00 85 1017.1
20260507145552 63 24 7.0 14.0 0.00 0.00 0.00 85 1017.2
20260507145051 63 5 6.0 12.0 0.00 0.00 0.00 86 1017.0
20260507144608 63 90 6.0 12.0 0.00 0.00 0.00 86 1016.8
20260507144052 63 67 2.0 14.0 0.00 0.00 0.00 87 1016.7
20260507143552 63 39 5.0 14.0 0.00 0.00 0.00 87 1016.8
20260507143103 62 38 5.0 17.0 0.00 0.00 0.00 87 1016.7
20260507142552 62 57 7.0 17.0 0.00 0.00 0.00 87 1016.8
20260507142053 62 86 7.0 17.0 0.00 0.00 0.00 87 1016.6
20260507141600 62 54 4.0 17.0 0.00 0.00 0.00 88 1016.3
20260507141053 62 99 4.0 17.0 0.00 0.00 0.00 88 1016.1
20260507140554 62 78 8.0 18.0 0.00 0.00 0.00 88 1016.1
20260507140056 62 9 7.0 18.0 0.00 0.00 0.00 88 1016.0
20260507135553 62 65 7.0 18.0 0.00 0.00 0.00 89 1016.1
20260507135053 62 96 5.0 16.0 0.00 0.00 0.00 89 1016.1
20260507134559 62 298 6.0 13.0 0.00 0.00 0.00 89 1016.4
20260507134051 62 25 4.0 13.0 0.00 0.00 0.00 89 1016.6
20260507133552 62 332 3.0 13.0 0.00 0.00 0.00 89 1016.7
20260507133142 62 343 4.0 13.0 0.00 0.00 0.00 89 1016.7
20260507132551 62 17 5.0 17.0 0.00 0.00 0.00 89 1016.6
20260507132051 62 327 4.0 17.0 0.00 0.00 0.00 89 1016.5
20260507131558 62 32 5.0 14.0 0.00 0.00 0.00 88 1016.4
20260507131052 62 86 7.0 14.0 0.00 0.00 0.00 88 1016.6
20260507130556 62 321 4.0 11.0 0.00 0.00 0.00 88 1016.5
20260507130103 63 344 4.0 17.0 0.00 0.00 0.00 88 1016.5
20260507125552 63 352 7.0 17.0 0.00 0.00 0.00 88 1016.6
20260507125052 63 66 5.0 16.0 0.00 0.00 0.00 88 1016.3
20260507124606 63 24 4.0 16.0 0.00 0.00 0.00 88 1016.2
20260507124053 63 57 6.0 16.0 0.00 0.00 0.00 87 1016.1
20260507123553 63 40 6.0 13.0 0.00 0.00 0.00 87 1016.1
20260507123053 63 44 4.0 12.0 0.00 0.00 0.00 87 1016.3
20260507122552 63 344 4.0 13.0 0.00 0.00 0.00 87 1016.6
20260507122052 63 35 6.0 13.0 0.00 0.00 0.00 87 1016.7
20260507121553 63 44 6.0 15.0 0.00 0.00 0.00 87 1016.5
20260507121052 63 56 2.0 15.0 0.00 0.00 0.00 87 1016.6
20260507120551 63 41 3.0 11.0 0.00 0.00 0.00 87 1016.4
20260507120052 63 336 4.0 11.0 0.00 0.00 0.00 86 1016.2
20260507115552 63 24 2.0 10.0 0.00 0.00 0.00 86 1016.0
20260507115052 63 350 2.0 7.0 0.00 0.00 0.00 86 1016.0
20260507114609 63 352 2.0 11.0 0.00 0.00 0.00 86 1015.6
20260507114052 63 22 2.0 11.0 0.00 0.00 0.00 86 1015.5
20260507113553 63 45 4.0 11.0 0.00 0.00 0.00 86 1015.3
20260507113054 64 9 5.0 11.0 0.00 0.00 0.00 86 1015.3
20260507112552 64 329 4.0 11.0 0.00 0.00 0.00 86 1015.4
20260507112057 64 360 2.0 12.0 0.00 0.00 0.00 86 1015.4
20260507111555 64 21 4.0 12.0 0.00 0.00 0.00 86 1015.0
20260507111126 64 64 3.0 11.0 0.00 0.00 0.00 86 1015.2
20260507110555 64 47 2.0 12.0 0.00 0.00 0.00 86 1015.2
20260507110054 64 13 3.0 12.0 0.00 0.00 0.00 86 1015.2
20260507105552 64 90 2.0 11.0 0.00 0.00 0.00 86 1015.3
20260507105053 64 76 3.0 10.0 0.00 0.00 0.00 86 1015.1
20260507104553 64 10 3.0 13.0 0.00 0.00 0.00 86 1015.2
20260507104053 64 51 4.0 13.0 0.00 0.00 0.00 86 1014.9
20260507103553 64 27 2.0 10.0 0.00 0.00 0.00 86 1015.2
20260507103056 64 67 1.0 8.0 0.00 0.00 0.00 86 1015.2
20260507102552 64 39 2.0 8.0 0.00 0.00 0.00 86 1014.7
20260507102053 64 41 3.0 11.0 0.00 0.00 0.00 86 1014.6
20260507101554 64 39 4.0 11.0 0.00 0.00 0.00 85 1015.1
20260507101052 64 19 4.0 10.0 0.00 0.00 0.00 85 1015.0
20260507100555 64 46 3.0 8.0 0.00 0.00 0.00 85 1015.1
20260507100058 64 318 3.0 10.0 0.00 0.00 0.00 85 1014.9
20260507095552 64 45 2.0 10.0 0.00 0.00 0.00 85 1015.0
20260507095052 64 19 2.0 8.0 0.00 0.00 0.00 85 1014.9
20260507094559 64 335 3.0 8.0 0.00 0.00 0.00 85 1014.5
20260507094054 64 330 1.0 7.0 0.00 0.00 0.00 85 1014.6
20260507093553 64 62 1.0 8.0 0.00 0.00 0.00 85 1014.7
20260507093052 64 24 3.0 8.0 0.00 0.00 0.00 85 1014.6
20260507092554 64 65 2.0 8.0 0.00 0.00 0.00 85 1014.5
20260507092054 64 30 2.0 6.0 0.00 0.00 0.00 85 1014.4
20260507091554 64 32 2.0 7.0 0.00 0.00 0.00 85 1014.4
20260507091052 64 5 3.0 7.0 0.00 0.00 0.00 85 1014.4
20260507090552 64 17 2.0 11.0 0.00 0.00 0.00 85 1014.4
20260507090054 64 64 2.0 11.0 0.00 0.00 0.00 85 1014.3
20260507085551 64 78 2.0 7.0 0.00 0.00 0.00 85 1014.3
20260507085052 64 35 2.0 7.0 0.00 0.00 0.00 85 1014.1
20260507084559 64 0 1.0 9.0 0.00 0.00 0.00 85 1014.1
20260507084052 64 16 4.0 10.0 0.00 0.00 0.00 85 1014.0
20260507083551 64 21 3.0 12.0 0.00 0.00 0.00 85 1014.0
20260507083057 64 5 4.0 12.0 0.00 0.00 0.00 85 1013.9
20260507082552 64 61 3.0 10.0 0.00 0.00 0.00 85 1014.2
20260507082052 64 0 2.0 10.0 0.00 0.00 0.00 85 1014.1
20260507081555 64 66 4.0 9.0 0.00 0.00 0.00 84 1014.2
20260507081055 64 37 4.0 14.0 0.00 0.00 0.00 84 1014.3
20260507080552 64 48 5.0 14.0 0.00 0.00 0.00 84 1014.1
20260507080056 64 61 3.0 12.0 0.00 0.00 0.00 84 1014.2
20260507075554 64 349 6.0 12.0 0.00 0.00 0.00 84 1014.5
20260507075052 64 49 3.0 11.0 0.00 0.00 0.00 84 1014.3
20260507074557 64 35 6.0 11.0 0.00 0.00 0.00 84 1014.4
20260507074051 64 52 2.0 9.0 0.00 0.00 0.00 84 1014.5
20260507073551 64 47 4.0 11.0 0.00 0.00 0.00 84 1014.6
20260507073102 64 67 5.0 11.0 0.00 0.00 0.00 84 1014.6
20260507072552 64 52 2.0 10.0 0.00 0.00 0.00 84 1014.5
20260507072053 64 5 2.0 10.0 0.00 0.00 0.00 84 1014.5
20260507071556 64 5 3.0 10.0 0.00 0.00 0.00 84 1014.6
20260507071054 64 343 2.0 11.0 0.00 0.00 0.00 84 1014.6
20260507070552 64 63 3.0 11.0 0.00 0.00 0.00 84 1014.4
20260507070104 64 58 3.0 10.0 0.00 0.00 0.00 84 1014.6
20260507065556 64 46 3.0 11.0 0.00 0.00 0.00 83 1014.5
20260507065052 65 26 4.0 11.0 0.00 0.00 0.00 83 1014.5
20260507064559 65 66 3.0 11.0 0.00 0.00 0.00 83 1014.7
20260507064052 65 35 6.0 13.0 0.00 0.00 0.00 83 1014.8
20260507063551 65 63 5.0 13.0 0.00 0.00 0.00 83 1014.5
20260507063054 65 22 4.0 11.0 0.00 0.00 0.00 83 1014.6
20260507062552 65 17 5.0 15.0 0.00 0.00 0.00 83 1014.8
20260507062052 65 27 5.0 16.0 0.00 0.00 0.00 83 1014.7
20260507061557 65 27 8.0 16.0 0.00 0.00 0.00 83 1014.6
20260507061051 65 84 5.0 13.0 0.00 0.00 0.00 83 1014.9
20260507060553 65 118 4.0 12.0 0.00 0.00 0.00 83 1014.8
20260507060100 65 64 4.0 12.0 0.00 0.00 0.00 83 1014.8
20260507055556 65 349 4.0 12.0 0.00 0.00 0.00 83 1014.6
20260507055054 65 11 4.0 12.0 0.00 0.00 0.00 83 1014.6
20260507054553 65 338 3.0 12.0 0.00 0.00 0.00 83 1014.7
20260507054052 65 67 4.0 13.0 0.00 0.00 0.00 83 1014.6
20260507053552 65 313 5.0 13.0 0.00 0.00 0.00 83 1014.6
20260507053115 65 25 4.0 13.0 0.00 0.00 0.00 83 1014.4
20260507052551 65 38 3.0 13.0 0.00 0.00 0.00 83 1014.4
20260507052052 65 50 4.0 11.0 0.00 0.00 0.00 83 1014.5
20260507051558 65 13 4.0 11.0 0.00 0.00 0.00 83 1014.5
20260507051050 65 47 2.0 12.0 0.00 0.00 0.00 83 1014.2
20260507050552 65 62 4.0 14.0 0.00 0.00 0.00 83 1014.3
20260507050056 65 5 4.0 16.0 0.00 0.00 0.00 83 1014.1
20260507045552 65 355 4.0 16.0 0.00 0.00 0.00 83 1014.1
20260507045052 65 21 3.0 11.0 0.00 0.00 0.00 83 1013.9
20260507044613 65 27 3.0 11.0 0.00 0.00 0.00 83 1014.1
20260507044053 65 347 4.0 13.0 0.00 0.00 0.00 83 1014.1
20260507043551 65 47 3.0 13.0 0.00 0.00 0.00 83 1014.1
20260507043053 65 69 4.0 13.0 0.00 0.00 0.00 83 1014.2
20260507042552 65 79 4.0 13.0 0.00 0.00 0.00 83 1014.1
20260507042052 66 90 3.0 11.0 0.00 0.00 0.00 83 1014.0
20260507041554 66 286 4.0 11.0 0.00 0.00 0.00 83 1014.1
20260507041052 66 18 2.0 9.0 0.00 0.00 0.00 83 1014.0
20260507040553 66 36 2.0 9.0 0.00 0.00 0.00 83 1014.1
20260507040056 66 39 2.0 9.0 0.00 0.00 0.00 83 1014.2
20260507035552 66 17 4.0 9.0 0.00 0.00 0.00 83 1014.1
20260507035052 66 57 2.0 11.0 0.00 0.00 0.00 83 1014.1
20260507034601 66 288 3.0 11.0 0.00 0.00 0.00 83 1014.2
20260507034051 66 93 4.0 11.0 0.00 0.00 0.00 83 1014.3
20260507033552 66 42 3.0 9.0 0.00 0.00 0.00 83 1014.2
20260507033105 66 351 2.0 8.0 0.00 0.00 0.00 83 1014.2
20260507032552 66 321 2.0 10.0 0.00 0.00 0.00 83 1014.0
20260507032053 66 45 3.0 10.0 0.00 0.00 0.00 83 1013.8
20260507031602 66 60 4.0 10.0 0.00 0.00 0.00 83 1013.6
20260507031052 66 321 3.0 15.0 0.00 0.00 0.00 83 1013.7
20260507030551 66 319 4.0 15.0 0.00 0.00 0.00 82 1013.6
20260507030109 66 25 6.0 15.0 0.00 0.00 0.00 82 1013.5
20260507025551 66 337 3.0 10.0 0.00 0.00 0.00 82 1013.5
20260507025052 66 38 3.0 10.0 0.00 0.00 0.00 82 1013.6
20260507024613 66 22 3.0 11.0 0.00 0.00 0.00 82 1013.7
20260507024052 66 56 4.0 16.0 0.00 0.00 0.00 82 1013.4
20260507023552 67 5 4.0 16.0 0.00 0.00 0.00 81 1013.3
20260507023054 67 58 4.0 12.0 0.00 0.00 0.00 81 1013.4
20260507022552 67 322 3.0 12.0 0.00 0.00 0.00 82 1013.4
20260507022052 67 55 4.0 15.0 0.00 0.00 0.00 81 1013.2
20260507021558 67 9 4.0 15.0 0.00 0.00 0.00 81 1012.9
20260507021055 67 348 6.0 15.0 0.00 0.00 0.00 81 1012.8
20260507020552 67 350 3.0 9.0 0.00 0.00 0.00 81 1012.7
20260507020101 67 0 3.0 9.0 0.00 0.00 0.00 81 1012.5
20260507015551 68 320 2.0 9.0 0.00 0.00 0.00 82 1012.2
20260507015055 68 301 3.0 9.0 0.00 0.00 0.00 81 1012.1
20260507014559 68 33 3.0 11.0 0.00 0.00 0.00 81 1011.9
20260507014052 68 355 3.0 11.0 0.00 0.00 0.00 81 1011.7
20260507013553 68 38 3.0 11.0 0.00 0.00 0.00 80 1011.7
20260507013100 68 69 3.0 9.0 0.00 0.00 0.00 80 1011.7
20260507012551 69 344 2.0 14.0 0.00 0.00 0.00 80 1011.6
20260507012051 69 0 5.0 14.0 0.00 0.00 0.00 79 1011.4
20260507011557 69 126 4.0 13.0 0.00 0.00 0.00 79 1011.3
20260507011052 69 32 4.0 13.0 0.00 0.00 0.00 79 1011.2
20260507010552 70 53 6.0 13.0 0.00 0.00 0.00 79 1011.3
20260507010052 70 355 3.0 11.0 0.00 0.00 0.00 79 1011.3
20260507005551 70 344 3.0 10.0 0.00 0.00 0.00 79 1011.3
20260507005053 70 315 2.0 11.0 0.00 0.00 0.00 79 1011.3
20260507004554 71 36 4.0 11.0 0.00 0.00 0.00 79 1011.1
20260507004052 71 290 2.0 10.0 0.00 0.00 0.00 79 1011.0
20260507003551 71 298 3.0 11.0 0.00 0.00 0.00 79 1011.0
20260507003100 71 25 4.0 11.0 0.00 0.00 0.00 79 1010.9
20260507002554 71 333 4.0 11.0 0.00 0.00 0.00 79 1011.0
20260507002052 72 63 4.0 13.0 0.00 0.00 0.00 79 1010.9
20260507001552 72 24 4.0 14.0 0.00 0.00 0.00 79 1010.9
20260507001054 72 38 5.0 14.0 0.00 0.00 0.00 78 1010.9
20260507000554 72 271 3.0 14.0 0.00 0.00 0.00 78 1010.8
20260507000053 72 61 4.0 14.0 0.00 0.00 0.00 79 1010.7
20260506235551 72 14 3.0 15.0 0.00 0.00 0.00 79 1010.6
20260506235051 73 40 4.0 15.0 0.00 0.00 0.00 78 1010.4
20260506234606 73 302 6.0 15.0 0.00 0.00 0.00 78 1010.4
20260506234052 73 327 4.0 12.0 0.00 0.00 0.00 78 1010.2
20260506233553 73 73 5.0 12.0 0.00 0.00 0.00 78 1010.3
20260506233058 73 321 4.0 12.0 0.00 0.00 0.00 78 1010.1
20260506232552 74 340 3.0 12.0 0.00 0.00 0.00 78 1010.1
20260506232058 74 12 4.0 18.0 0.00 0.00 0.00 78 1010.0
20260506231558 74 332 4.0 18.0 0.00 0.00 0.00 78 1010.1
20260506231052 74 42 6.0 15.0 0.00 0.00 0.00 78 1010.2
20260506230552 75 5 5.0 15.0 0.00 0.00 0.00 77 1010.0
20260506225552 76 130 5.0 15.0 0.00 0.00 0.00 76 1009.9
20260506225052 77 303 6.0 14.0 0.00 0.00 0.00 76 1009.9
20260506224602 77 14 4.0 16.0 0.00 0.00 0.00 76 1009.8
20260506224050 78 329 8.0 16.0 0.00 0.00 0.00 76 1009.3
20260506223551 79 44 4.0 16.0 0.00 0.00 0.00 77 1009.6
20260506223053 80 144 5.0 16.0 0.00 0.00 0.00 75 1009.6
20260506222553 81 273 6.0 16.0 0.00 0.00 0.00 74 1009.5
20260506222051 83 37 4.0 11.0 0.00 0.00 0.00 78 1009.3
20260506221555 84 5 3.0 11.0 0.00 0.00 0.00 78 1009.3
20260506221051 85 269 1.0 4.0 0.00 0.00 0.00 80 1009.2
20260506220552 85 0 0.0 4.0 0.00 0.00 0.00 80 1009.1
20260506220100 85 0 1.0 6.0 0.00 0.00 0.00 79 1009.2
20260506215551 85 0 2.0 6.0 0.00 0.00 0.00 79 1009.1
20260506215051 85 71 1.0 5.0 0.00 0.00 0.00 79 1009.0
20260506214555 85 87 1.0 5.0 0.00 0.00 0.00 79 1009.2
20260506214051 86 0 1.0 7.0 0.00 0.00 0.00 79 1009.2
20260506213553 86 60 2.0 7.0 0.00 0.00 0.00 79 1009.1
20260506213101 86 24 1.0 4.0 0.00 0.00 0.00 80 1009.0
20260506212554 86 0 2.0 5.0 0.00 0.00 0.00 78 1009.2
20260506212054 86 0 2.0 5.0 0.00 0.00 0.00 78 1009.0
20260506211552 86 76 0.0 3.0 0.00 0.00 0.00 77 1009.1
20260506211054 86 0 0.0 3.0 0.00 0.00 0.00 77 1009.2
20260506210554 86 0 0.0 5.0 0.00 0.00 0.00 76 1009.1
20260506210057 86 0 1.0 5.0 0.00 0.00 0.00 77 1009.1
20260506205553 86 0 0.0 6.0 0.00 0.00 0.00 76 1009.1
20260506205053 86 110 1.0 6.0 0.00 0.00 0.00 77 1009.2
20260506204556 86 0 0.0 5.0 0.00 0.00 0.00 78 1009.2
20260506204053 86 153 0.0 7.0 0.00 0.00 0.00 79 1009.3
20260506203553 86 0 2.0 7.0 0.00 0.00 0.00 78 1009.2
20260506203054 86 162 2.0 8.0 0.00 0.00 0.00 78 1009.3
20260506202553 86 174 1.0 8.0 0.00 0.00 0.00 78 1009.2
20260506202053 86 125 2.0 7.0 0.00 0.00 0.00 77 1009.3
20260506201557 87 106 2.0 7.0 0.00 0.00 0.00 77 1009.3
20260506201054 87 125 3.0 8.0 0.00 0.00 0.00 77 1009.4
20260506200554 87 130 1.0 8.0 0.00 0.00 0.00 76 1009.4
20260506200054 87 175 3.0 8.0 0.00 0.00 0.00 76 1009.4
20260506195553 86 146 3.0 8.0 0.00 0.00 0.00 78 1009.4
20260506195053 86 0 2.0 7.0 0.00 0.00 0.00 78 1009.4
20260506194554 86 0 1.0 9.0 0.00 0.00 0.00 77 1009.4
20260506194123 86 137 3.0 9.0 0.00 0.00 0.00 77 1009.5
20260506193558 86 78 4.0 7.0 0.00 0.00 0.00 77 1009.5
20260506193055 86 0 1.0 8.0 0.00 0.00 0.00 78 1009.5
20260506192554 86 97 1.0 8.0 0.00 0.00 0.00 77 1009.6
20260506192054 86 110 2.0 8.0 0.00 0.00 0.00 78 1009.8
20260506191554 86 0 1.0 7.0 0.00 0.00 0.00 80 1009.8
20260506191054 85 0 1.0 7.0 0.00 0.00 0.00 80 1009.9
20260506190554 84 160 2.0 6.0 0.00 0.00 0.00 80 1010.0
20260506190058 84 0 0.0 7.0 0.00 0.00 0.00 82 1010.0
20260506185553 83 0 0.0 7.0 0.00 0.00 0.00 82 1010.0
20260506185053 83 148 2.0 7.0 0.00 0.00 0.00 82 1010.1
20260506184555 83 0 1.0 6.0 0.00 0.00 0.00 84 1010.1
20260506184054 83 0 1.0 7.0 0.00 0.00 0.00 83 1010.2
20260506183555 83 142 2.0 7.0 0.00 0.00 0.00 84 1010.2
20260506183054 83 0 0.0 5.0 0.00 0.00 0.00 84 1010.1
20260506182554 83 0 0.0 4.0 0.00 0.00 0.00 85 1010.2
20260506182054 82 0 0.0 5.0 0.00 0.00 0.00 87 1010.2
20260506181558 82 85 1.0 5.0 0.00 0.00 0.00 86 1010.3
20260506181052 81 75 1.0 5.0 0.00 0.00 0.00 87 1010.5
20260506180552 81 0 1.0 5.0 0.00 0.00 0.00 89 1010.5
20260506180057 80 84 1.0 4.0 0.00 0.00 0.00 89 1010.6
20260506175555 80 86 0.0 4.0 0.00 0.00 0.00 89 1010.7
20260506175051 80 71 0.0 4.0 0.00 0.00 0.00 89 1010.8
20260506174553 80 0 0.0 0.0 0.00 0.00 0.00 89 1010.8
20260506174051 80 0 0.0 3.0 0.00 0.00 0.00 89 1011.0
20260506173551 80 0 0.0 3.0 0.00 0.00 0.00 89 1011.0
20260506173124 80 96 0.0 3.0 0.00 0.00 0.00 88 1011.2
20260506172551 80 96 0.0 3.0 0.00 0.00 0.00 88 1011.3
20260506172100 80 0 1.0 3.0 0.00 0.00 0.00 88 1011.3
20260506171610 80 0 0.0 3.0 0.00 0.00 0.00 88 1011.4
20260506171055 80 0 0.0 4.0 0.00 0.00 0.00 88 1011.4
20260506170552 80 0 1.0 4.0 0.00 0.00 0.00 87 1011.4
20260506170055 80 93 0.0 4.0 0.00 0.00 0.00 87 1011.5
20260506165552 80 87 1.0 3.0 0.00 0.00 0.00 87 1011.6
20260506165052 80 0 0.0 3.0 0.00 0.00 0.00 87 1011.6
20260506164601 80 0 0.0 4.0 0.00 0.00 0.00 86 1011.5
20260506164051 80 0 0.0 4.0 0.00 0.00 0.00 86 1011.6
20260506163552 80 0 1.0 4.0 0.00 0.00 0.00 86 1011.5
20260506163106 80 0 0.0 3.0 0.00 0.00 0.00 86 1011.5
20260506162551 80 0 0.0 3.0 0.00 0.00 0.00 86 1011.5
20260506162051 80 0 0.0 6.0 0.00 0.00 0.00 86 1011.4
20260506161629 80 0 1.0 6.0 0.00 0.00 0.00 86 1011.4
20260506161055 80 96 1.0 6.0 0.00 0.00 0.00 86 1011.2
20260506160551 80 0 1.0 7.0 0.00 0.00 0.00 86 1011.0
20260506160108 80 143 1.0 8.0 0.00 0.00 0.00 87 1010.9
20260506155551 80 114 1.0 8.0 0.00 0.00 0.00 87 1010.7
20260506155053 80 0 1.0 5.0 0.00 0.00 0.00 87 1010.6
20260506154555 80 135 0.0 6.0 0.00 0.00 0.00 87 1010.7
20260506154053 80 0 1.0 6.0 0.00 0.00 0.00 86 1010.6
20260506153554 80 0 1.0 6.0 0.00 0.00 0.00 86 1010.5
20260506153058 80 99 1.0 5.0 0.00 0.00 0.00 87 1010.5